Tracking 19709 objects as of 19-Jun-2019
HD Live streaming from Space Station
objects crossing your sky now

COSMOS 1375 DEB

Track COSMOS 1375 DEB now!
10-day predictions


NORAD ID: 18477
Int'l Code: 1982-055BF
Perigee: 812.8 km
Apogee: 865.4 km
Inclination: 65.8 °
Period: 101.5 minutes
Semi major axis: 7210 km
RCS: 0.0083 m2 (small)
Launch date: June 6, 1982
Source: Commonwealth of Independent States (former USSR) (CIS)
Launch site: PLESETSK MISSILE AND SPACE COMPLEX (PKMTR)

Note: This is SATELLITE DEBRIS
aabbcc
Your satellite tracking list
Your tracking list is empty




NASA's NSSDC Master Catalog

Two Line Element Set (TLE):
1 18477U 82055BF  19168.65478092 +.00001108 +00000-0 +57989-3 0  9994
2 18477 065.8252 260.0523 0036455 270.3708 089.3199 14.18051769713434
Source of the keplerian elements: AFSPC